Tracking 28799 objects as of 18-Apr-2024
HD Live streaming from Space Station
objects crossing your sky now

USA 97

Track USA 97 now!
USA 97 is classified as:


NORAD ID: 22915
Int'l Code: 1993-074A
Perigee: 36,254.6 km
Apogee: 36,319.7 km
Inclination: 13.1 °
Period: 1,461.4 minutes
Semi major axis: 42658 km
RCS: Unknown
Launch date: November 28, 1993
Source: United States (US)
Launch site: AIR FORCE EASTERN TEST RANGE (AFETR)

Spare; Super High Frequency (SHF) for U.S. government and military; sophisticated survivability enhancement; worldwide, longhaul coverage; X-band; in reserve.
Your satellite tracking list
Your tracking list is empty




NASA's NSSDC Master Catalog

Two Line Element Set (TLE):
1 22915U 93074A   24108.44583292 -.00000219  00000-0  00000-0 0  9997
2 22915  13.0546  20.8348 0007633  14.6886 145.9474  0.98537046 17113
Source of the keplerian elements: McCants